Home > Weather > Chiang Rai > Past weeks

Flag for Thailand Weather for the Past 2 Weeks in Chiang Rai, Thailand

Now
61 °F

Clear.


Feels Like: 61 °F
Forecast: 57 / 92 °F
Wind: No wind

Location: Chiang Mai Airport

Current Time: Feb 14, 2016 at 7:09:59 AM

Latest Report: Feb 14, 2016 at 6:30 AM


Visibility: 5 mi

Pressure: 29.98 "Hg

Humidity: 83%

Dew point: 55 °F

Location of Chiang RaiLocation

Historic Weather in Chiang Rai — Graph

°F

Chiang Rai Temperature Yesterday

Maximum temperature yesterday: 90 °F (at 3:00 PM)
Minimum temperature yesterday: 59 °F (at 7:00 AM)
Average temperature yesterday: 76 °F

High & Low Weather Summary for the Past Weeks

 TemperatureHumidityPressure
High95 °F (Feb 1, 3:00 PM)94% (Jan 30, 7:30 AM)30.27 "Hg (Jan 30, 7:30 AM)
Low54 °F (Feb 9, 5:00 AM)15% (Feb 1, 3:00 PM)29.86 "Hg (Jan 30, 4:00 PM)
Average72 °F51%30.00 "Hg
* Reported Jan 30 5:00 AM — Feb 14 5:30 AM, Chiang Rai, Weather by CustomWeather, © 2016

Note: Actual official high and low records may vary slightly from our data, if they occured in-between our weather recording intervals... More about our weather records

Advertising

Chiang Rai Weather History for the Previous 24 Hours

 ConditionsComfort  
Time TempWeatherWind HumidityBarometerVisibility
5:30 AM
Sun, Feb 14
63 °FClear.No wind77%29.95 "Hg5 mi
5:00 AM63 °FClear.No wind77%29.92 "Hg10 mi
4:30 AM63 °FClear.No wind77%29.92 "Hg10 mi
4:00 AM63 °FClear.No wind77%29.92 "Hg10 mi
3:30 AM64 °FClear.No wind73%29.92 "Hg10 mi
3:00 AM64 °FClear.No wind73%29.92 "Hg10 mi
2:30 AM66 °FClear.No wind64%29.92 "Hg10 mi
2:00 AM66 °FClear.No wind64%29.92 "Hg10 mi
1:30 AM66 °FClear.3 mph68%29.92 "Hg10 mi
1:00 AM66 °FClear.No wind64%29.95 "Hg10 mi
12:30 AM68 °FClear.No wind60%29.95 "Hg10 mi
12:00 AM70 °FClear.No wind57%29.95 "Hg10 mi
11:30 PM
Sat, Feb 13
70 °FClear.No wind60%29.95 "Hg10 mi
11:00 PM73 °FClear.No wind53%29.95 "Hg10 mi
10:30 PM73 °FClear.No wind50%29.95 "Hg10 mi
10:00 PM73 °FClear.No wind50%29.95 "Hg10 mi
9:30 PM72 °FClear.5 mph53%29.95 "Hg10 mi
9:00 PM77 °FClear.1 mph44%29.92 "Hg10 mi
8:30 PM77 °FClear.2 mph36%29.92 "Hg10 mi
8:00 PM77 °FClear.1 mph34%29.92 "Hg10 mi
7:30 PM79 °FClear.No wind37%29.89 "Hg10 mi
7:00 PM81 °FPassing clouds.5 mph34%29.89 "Hg6 mi
6:30 PM86 °FPassing clouds.3 mph29%29.89 "Hg6 mi
6:00 PM88 °FPassing clouds.2 mph25%29.89 "Hg6 mi
5:30 PM90 °FPassing clouds.3 mph22%29.89 "Hg6 mi
5:00 PM90 °FPassing clouds.3 mph24%29.89 "Hg6 mi
4:30 PM90 °FPassing clouds.3 mph24%29.89 "Hg6 mi
4:00 PM90 °FPassing clouds.6 mph26%29.89 "Hg6 mi
3:30 PM90 °FPassing clouds.6 mph26%29.89 "Hg6 mi
3:00 PM90 °FPassing clouds.3 mph26%29.89 "Hg6 mi
2:30 PM88 °FPassing clouds.5 mph27%29.92 "Hg6 mi
2:00 PM88 °FPassing clouds.5 mph27%29.92 "Hg5 mi
1:30 PM86 °FPassing clouds.3 mph29%29.95 "Hg5 mi
1:00 PM84 °FPassing clouds.3 mph31%29.95 "Hg5 mi
12:30 PM82 °FClear.3 mph35%29.98 "Hg5 mi
12:00 PM82 °FClear.3 mph35%30.01 "Hg4 mi
11:30 AM81 °FClear.1 mph39%30.04 "Hg4 mi
11:00 AM77 °FClear.3 mph44%30.04 "Hg4 mi
10:30 AM75 °FClear.1 mph47%30.07 "Hg4 mi
10:00 AM72 °FClear.1 mph57%30.07 "Hg4 mi
9:30 AM70 °FClear.2 mph64%30.04 "Hg4 mi
9:00 AM66 °FClear.1 mph68%30.04 "Hg4 mi
8:30 AM64 °FClear.No wind73%30.04 "Hg4 mi
8:00 AM63 °FPassing clouds.No wind77%30.04 "Hg4 mi
7:00 AM59 °FPassing clouds.No wind82%30.01 "Hg4 mi
Weather by CustomWeather, © 2016

See weather overviewHow to use our weather pages